Torna al catalogo

ACRIMSAT

AttivoScienzaSSO
NORAD 26033·PAYLOAD·🇺🇸 United States

Lanciato Dec 21, 1999 da Vandenberg Space Force Base

Loading…

Prossimi Passaggi (prossime 24 ore)

TLE

AggiornatoSource: Space-Track

Epoca: Sep 14, 2026, 03:40 UTC

1 26033U 99070B   26257.15283703  .00000399  00000-0  81894-4 0  9995
2 26033  98.3587  43.6316 0026152 185.5722 174.5194 14.65993220425929

Traccia ACRIMSAT in tempo reale con AllMySat

Download on the App Store